EW5212 Weather Reports


time (UTC)temp
F
wind
direction
speed
knots
gust
knots
rain 1hr
in
rain 24hr
in
rain mn
in
humidity
%
barometer
mb
20260903143515 86 0.0 1.7 0.00 0.00 0.00 83 1018.2
20260903142516 86 45 0.9 1.7 0.00 0.00 0.00 82 1018.2
20260903141515 86 0.0 1.7 0.00 0.00 0.00 82 1018.1
20260903140515 86 45 0.9 0.9 0.00 0.00 0.00 80 1018.1
20260903135515 87 0.0 0.9 0.00 0.00 0.00 81 1017.7
20260903134515 85 0.0 0.9 0.00 0.00 0.00 82 1017.7
20260903133515 84 270 0.9 2.6 0.00 0.00 0.00 82 1017.8
20260903132515 83 0.0 1.7 0.00 0.00 0.00 85 1017.9
20260903131516 80 0.0 0.9 0.00 0.00 0.00 90 1018.1
20260903130515 78 0.0 0.9 0.00 0.00 0.00 99 1018.1
20260903125516 77 0.0 0.0 0.00 0.00 0.00 100 1018.1
20260903124515 75 0.0 1.7 0.00 0.00 0.00 100 1018.4
20260903123515 74 0.0 0.0 0.00 0.00 0.00 100 1018.4
20260903122517 73 0.0 0.0 0.00 0.00 0.00 100 1018.3
20260903121517 72 0.0 0.0 0.00 0.00 0.00 100 1018.2
20260903120517 72 0.0 0.0 0.00 0.00 0.00 100 1018.3
20260903115517 72 0.0 0.0 0.00 0.00 0.00 100 1018.3
20260903114537 71 0.0 0.0 0.00 0.00 0.00 100 1018.1
20260903113537 71 0.0 0.0 0.00 0.00 0.00 100 1018.0
20260903112517 71 0.0 0.0 0.00 0.00 0.00 100 1017.9
20260903111557 71 0.0 0.0 0.00 0.00 0.00 100 1017.9
20260903110517 71 0.0 0.0 0.00 0.00 0.00 100 1017.8
20260903105517 71 0.0 0.0 0.00 0.00 0.00 100 1017.8
20260903104517 71 0.0 0.0 0.00 0.00 0.00 100 1017.7
20260903103517 71 0.0 0.0 0.00 0.00 0.00 100 1017.7
20260903102517 72 0.0 0.0 0.00 0.00 0.00 100 1017.6
20260903101557 72 0.0 0.0 0.00 0.00 0.00 100 1017.6
20260903100517 71 0.0 0.0 0.00 0.00 0.00 100 1017.7
20260903095521 72 0.0 0.0 0.00 0.00 0.00 100 1017.8
20260903094537 72 0.0 0.0 0.00 0.00 0.00 100 1017.7
20260903093537 72 0.0 0.0 0.00 0.00 0.00 100 1017.6
20260903092517 72 0.0 0.0 0.00 0.00 0.00 100 1017.6
20260903091517 72 0.0 0.0 0.00 0.00 0.00 100 1017.6
20260903090517 72 0.0 0.0 0.00 0.00 0.00 100 1017.4
20260903085517 72 0.0 0.0 0.00 0.00 0.00 100 1017.3
20260903084517 72 0.0 0.0 0.00 0.00 0.00 100 1017.1
20260903083517 73 0.0 0.0 0.00 0.00 0.00 100 1017.2
20260903082517 73 0.0 0.0 0.00 0.00 0.00 100 1017.1
20260903081537 73 0.0 0.0 0.00 0.00 0.00 100 1017.1
20260903080517 73 0.0 0.0 0.00 0.00 0.00 100 1017.3
20260903075516 73 0.0 0.0 0.00 0.00 0.00 100 1017.5
20260903074556 73 0.0 0.0 0.00 0.00 0.00 100 1017.5
20260903073517 73 0.0 0.0 0.00 0.00 0.00 100 1017.6
20260903072517 73 0.0 0.0 0.00 0.00 0.00 100 1017.6
20260903071517 74 0.0 0.0 0.00 0.00 0.00 100 1017.5
20260903070517 74 0.0 0.0 0.00 0.00 0.00 100 1017.5
20260903065517 74 0.0 0.0 0.00 0.00 0.00 100 1017.7
20260903064536 74 0.0 0.0 0.00 0.00 0.00 100 1017.8
20260903063517 74 0.0 0.0 0.00 0.00 0.00 100 1017.8
20260903062537 74 0.0 0.0 0.00 0.00 0.00 100 1017.8
20260903061516 74 0.0 0.9 0.00 0.00 0.00 100 1017.8
20260903060537 75 0.0 0.0 0.00 0.00 0.00 100 1017.7
20260903055517 75 0.0 0.0 0.00 0.00 0.00 100 1017.8
20260903054516 75 0.0 0.0 0.00 0.00 0.00 100 1017.9
20260903053517 75 0.0 0.0 0.00 0.00 0.00 100 1018.0
20260903052520 75 0.0 0.0 0.00 0.00 0.00 99 1018.2
20260903051537 75 0.0 0.0 0.00 0.00 0.00 99 1018.3
20260903050516 75 0.0 0.9 0.00 0.00 0.00 99 1018.3
20260903045516 75 0.0 0.0 0.00 0.00 0.00 99 1018.4
20260903044516 75 0.0 0.9 0.00 0.00 0.00 99 1018.2
20260903043517 75 0.0 0.0 0.00 0.00 0.00 99 1018.2
20260903042516 75 0.0 0.0 0.00 0.00 0.00 99 1018.3
20260903041517 75 0.0 0.0 0.00 0.00 0.00 99 1018.0
20260903040517 75 0.0 0.0 0.00 0.00 0.00 99 1017.8
20260903035516 75 0.0 0.0 0.00 0.00 0.00 99 1017.8
20260903034516 75 0.0 0.0 0.00 0.00 0.00 99 1017.8
20260903033517 75 0.0 0.0 0.00 0.00 0.00 98 1017.7
20260903032516 76 0.0 0.0 0.00 0.00 0.00 98 1017.6
20260903031516 76 0.0 0.0 0.00 0.00 0.00 98 1017.6
20260903030516 76 0.0 0.0 0.00 0.00 0.00 98 1017.6
20260903025517 76 0.0 0.0 0.00 0.00 0.00 98 1017.8
20260903024516 76 0.0 0.0 0.00 0.00 0.00 98 1017.7
20260903023516 77 0.0 0.0 0.00 0.00 0.00 98 1017.8
20260903022516 77 0.0 0.0 0.00 0.00 0.00 98 1017.9
20260903021536 77 0.0 0.0 0.00 0.00 0.00 97 1017.9
20260903020516 77 0.0 0.0 0.00 0.00 0.00 97 1018.1
20260903015536 77 0.0 0.0 0.00 0.00 0.00 97 1018.3
20260903014516 77 0.0 0.0 0.00 0.00 0.00 97 1018.4
20260903013516 78 0.0 0.0 0.00 0.00 0.00 97 1018.1
20260903012516 78 0.0 0.0 0.00 0.00 0.00 96 1018.2
20260903011516 78 0.0 0.0 0.00 0.00 0.00 96 1018.2
20260903010516 78 0.0 0.0 0.00 0.00 0.00 96 1018.2
20260903005556 79 0.0 0.0 0.00 0.00 0.00 95 1018.1
20260903004536 79 0.0 0.0 0.00 0.00 0.00 95 1018.1
20260903003516 79 0.0 0.0 0.00 0.00 0.00 94 1017.7
20260903002536 80 0.0 0.0 0.00 0.00 0.00 93 1017.6
20260903001516 81 0.0 0.0 0.00 0.00 0.00 93 1017.6
20260903000536 81 0.0 0.0 0.00 0.00 0.00 92 1017.7
20260902235516 82 0.0 0.0 0.00 0.00 0.00 91 1017.7
20260902234516 82 0.0 0.0 0.00 0.00 0.00 90 1017.5
20260902233516 83 0.0 0.0 0.00 0.00 0.00 89 1017.7
20260902232536 83 0.0 1.7 0.00 0.00 0.00 89 1017.5
20260902231516 83 0.0 0.0 0.00 0.00 0.00 89 1018.1
20260902230516 83 0.0 0.0 0.00 0.00 0.00 88 1018.3
20260902225517 83 0.0 0.0 0.00 0.00 0.00 87 1018.1
20260902224516 83 0.0 2.6 0.00 0.00 0.00 88 1017.7
20260902223516 83 90 0.9 3.5 0.00 0.00 0.00 86 1017.8
20260902222516 84 113 0.9 3.5 0.00 0.00 0.00 85 1018.5
20260902221516 84 0.0 0.9 0.00 0.00 0.00 85 1018.6
20260902220519 85 0.0 1.7 0.00 0.00 0.00 82 1018.1
20260902215516 86 0.0 1.7 0.00 0.00 0.00 81 1018.1
20260902214518 87 0.0 0.9 0.00 0.00 0.00 80 1018.1
20260902213516 88 68 0.9 4.3 0.00 0.00 0.00 77 1018.2
20260902212516 89 338 0.9 3.5 0.00 0.00 0.00 75 1018.0
20260902211516 89 338 0.9 2.6 0.00 0.00 0.00 75 1018.4
20260902210516 90 315 0.9 2.6 0.00 0.00 0.00 75 1017.9
20260902205516 90 293 1.7 3.5 0.00 0.00 0.00 76 1017.8
20260902204516 91 338 1.7 5.2 0.00 0.00 0.00 75 1018.2
20260902203516 93 0 0.9 2.6 0.00 0.00 0.00 72 1018.2
20260902202516 93 0.0 0.9 0.00 0.00 0.00 72 1017.9
20260902201516 93 338 0.9 1.7 0.00 0.00 0.00 71 1018.1
20260902200536 93 45 0.9 2.6 0.00 0.00 0.00 70 1018.2
20260902195516 94 45 0.9 1.7 0.00 0.00 0.00 70 1018.3
20260902194516 95 338 0.9 0.9 0.00 0.00 0.00 69 1017.9
20260902193516 95 0.0 1.7 0.00 0.00 0.00 66 1017.7
20260902192516 94 0.0 1.7 0.00 0.00 0.00 68 1017.8
20260902191516 94 0.0 0.9 0.00 0.00 0.00 68 1017.8
20260902190516 95 0.0 1.7 0.00 0.00 0.00 67 1017.9
20260902185515 94 0.0 2.6 0.00 0.00 0.00 67 1018.0
20260902184516 94 45 0.9 1.7 0.00 0.00 0.00 68 1018.2
20260902183516 95 0.0 0.9 0.00 0.00 0.00 68 1018.4
20260902182515 95 0.0 1.7 0.00 0.00 0.00 67 1018.4
20260902181515 95 0.0 1.7 0.00 0.00 0.00 67 1018.5
20260902180516 95 0.0 1.7 0.00 0.00 0.00 68 1018.6
20260902175516 94 338 0.9 2.6 0.00 0.00 0.00 67 1018.6
20260902174516 95 45 0.9 2.6 0.00 0.00 0.00 67 1018.7
20260902173516 94 338 0.9 1.7 0.00 0.00 0.00 67 1018.6
20260902172536 94 45 0.9 1.7 0.00 0.00 0.00 68 1018.5
20260902171516 94 45 0.9 2.6 0.00 0.00 0.00 67 1018.6
20260902170515 95 45 0.9 1.7 0.00 0.00 0.00 66 1018.6
20260902165515 94 45 0.9 1.7 0.00 0.00 0.00 67 1018.6
20260902164516 94 0.0 1.7 0.00 0.00 0.00 66 1018.7
20260902163516 94 45 0.9 3.5 0.00 0.00 0.00 65 1018.7
20260902162515 94 0.0 0.9 0.00 0.00 0.00 67 1018.7
20260902161536 94 45 0.9 1.7 0.00 0.00 0.00 68 1018.7
20260902160515 94 0.0 0.9 0.00 0.00 0.00 69 1019.0
20260902155515 93 0.0 1.7 0.00 0.00 0.00 70 1019.1
20260902154515 92 45 0.9 2.6 0.00 0.00 0.00 72 1019.1
20260902153515 92 0.0 1.7 0.00 0.00 0.00 70 1019.0
20260902152515 92 0.0 0.9 0.00 0.00 0.00 71 1019.0
20260902151515 91 0.0 0.9 0.00 0.00 0.00 72 1019.1
20260902150515 90 0.0 1.7 0.00 0.00 0.00 72 1019.2
20260902145515 90 0.0 0.9 0.00 0.00 0.00 74 1019.2
20260902144516 89 45 0.9 1.7 0.00 0.00 0.00 75 1019.3